EN

Hourly Weather Abqaiq

Today, 3 December, Thursday

Time Temperature Precipitation Wind Pressure Humidity
00:00 +23°C° 0 mm 1 mps 757 mmHg 80%
01:00 +23°C° 0 mm 1 mps 757 mmHg 82%
02:00 +22°C° 0 mm 1 mps 756 mmHg 83%
03:00 +22°C° 0 mm 1 mps 756 mmHg 82%
04:00 +22°C° 0 mm 1 mps 757 mmHg 83%
05:00 +22°C° 0 mm 1 mps 757 mmHg 84%
06:00 +21°C° 0 mm 1 mps 757 mmHg 85%
07:00 +23°C° 0 mm 1 mps 757 mmHg 77%
08:00 +25°C° 0 mm 1 mps 758 mmHg 69%
09:00 +26°C° 0 mm 1 mps 758 mmHg 59%
10:00 +27°C° 0 mm 1 mps 758 mmHg 54%
11:00 +28°C° 0 mm 1 mps 758 mmHg 49%
12:00 +29°C° 0 mm 1 mps 757 mmHg 44%
13:00 +30°C° 0 mm 1 mps 757 mmHg 43%
14:00 +30°C° 0 mm 2 mps 756 mmHg 41%
15:00 +32°C° 0 mm 4 mps 756 mmHg 41%
16:00 +29°C° 0 mm 5 mps 756 mmHg 51%
17:00 +27°C° 0 mm 5 mps 757 mmHg 60%
18:00 +26°C° 0 mm 6 mps 757 mmHg 70%
19:00 +25°C° 0 mm 5 mps 757 mmHg 73%
20:00 +25°C° 0 mm 4 mps 757 mmHg 76%
21:00 +24°C° 0 mm 3 mps 757 mmHg 79%
22:00 +24°C° 0 mm 3 mps 757 mmHg 81%
23:00 +23°C° 0 mm 2 mps 757 mmHg 84%

Tomorrow, 4 December, Friday

Time Temperature Precipitation Wind Pressure Humidity
00:00 +23°C° 0 mm 1 mps 757 mmHg 86%
01:00 +23°C° 0 mm 1 mps 756 mmHg 87%
02:00 +22°C° 0 mm 1 mps 756 mmHg 88%
03:00 +22°C° 0 mm 1 mps 755 mmHg 89%
04:00 +22°C° 0 mm 1 mps 756 mmHg 89%
05:00 +21°C° 0 mm 1 mps 756 mmHg 89%
06:00 +21°C° 0 mm 1 mps 756 mmHg 89%
07:00 +23°C° 0 mm 1 mps 756 mmHg 82%
08:00 +24°C° 0 mm 1 mps 757 mmHg 75%
09:00 +26°C° 0 mm 2 mps 757 mmHg 69%
10:00 +27°C° 0 mm 2 mps 757 mmHg 63%
11:00 +28°C° 0 mm 2 mps 757 mmHg 57%
12:00 +29°C° 0 mm 2 mps 756 mmHg 52%
13:00 +29°C° 0 mm 3 mps 756 mmHg 51%
14:00 +30°C° 0 mm 3 mps 755 mmHg 50%
15:00 +30°C° 0 mm 4 mps 755 mmHg 50%
16:00 +28°C° 0 mm 4 mps 755 mmHg 57%
17:00 +27°C° 0 mm 4 mps 755 mmHg 64%
18:00 +25°C° 0 mm 4 mps 756 mmHg 71%
19:00 +25°C° 0 mm 4 mps 756 mmHg 73%
20:00 +24°C° 0 mm 3 mps 756 mmHg 76%
21:00 +24°C° 0 mm 3 mps 756 mmHg 78%
22:00 +23°C° 0 mm 2 mps 756 mmHg 81%
23:00 +23°C° 0 mm 2 mps 755 mmHg 83%

Day after tomorrow, 5 December, Saturday

Time Temperature Precipitation Wind Pressure Humidity
00:00 +23°C° 0 mm 2 mps 755 mmHg 86%
01:00 +23°C° 0 mm 2 mps 755 mmHg 87%
02:00 +21°C° 0 mm 2 mps 755 mmHg 88%
03:00 +21°C° 0 mm 2 mps 754 mmHg 89%
04:00 +21°C° 0 mm 2 mps 755 mmHg 89%
05:00 +21°C° 0 mm 2 mps 755 mmHg 90%
06:00 +21°C° 0 mm 2 mps 755 mmHg 91%
07:00 +23°C° 0 mm 2 mps 755 mmHg 85%
08:00 +24°C° 0 mm 3 mps 756 mmHg 79%
09:00 +26°C° 0 mm 3 mps 756 mmHg 74%
10:00 +27°C° 0 mm 3 mps 755 mmHg 67%
11:00 +28°C° 0 mm 2 mps 755 mmHg 61%
12:00 +29°C° 0 mm 2 mps 755 mmHg 55%
13:00 +29°C° 0 mm 3 mps 754 mmHg 53%
14:00 +29°C° 0 mm 3 mps 753 mmHg 52%
15:00 +29°C° 0 mm 3 mps 753 mmHg 51%
16:00 +28°C° 0 mm 4 mps 753 mmHg 59%
17:00 +26°C° 0 mm 4 mps 753 mmHg 67%
18:00 +25°C° 0 mm 4 mps 753 mmHg 75%
19:00 +25°C° 0 mm 4 mps 753 mmHg 78%
20:00 +23°C° 0 mm 4 mps 753 mmHg 81%
21:00 +23°C° 0 mm 4 mps 753 mmHg 85%
22:00 +23°C° 0 mm 4 mps 753 mmHg 85%
23:00 +23°C° 0 mm 4 mps 752 mmHg 85%

6 December, Sunday

Time Temperature Precipitation Wind Pressure Humidity
00:00 +23°C° 0 mm 4 mps 752 mmHg 85%
01:00 +22°C° 0 mm 4 mps 752 mmHg 84%
02:00 +22°C° 0 mm 3 mps 752 mmHg 83%
03:00 +23°C° 0 mm 2 mps 751 mmHg 83%
04:00 +23°C° 0 mm 2 mps 752 mmHg 81%
05:00 +23°C° 0 mm 2 mps 752 mmHg 80%
06:00 +23°C° 0 mm 2 mps 752 mmHg 78%
07:00 +23°C° 0 mm 4 mps 752 mmHg 69%
08:00 +26°C° 0 mm 5 mps 752 mmHg 60%
09:00 +27°C° 0 mm 7 mps 753 mmHg 51%
10:00 +29°C° 0 mm 7 mps 752 mmHg 41%
11:00 +33°C° 0 mm 8 mps 752 mmHg 31%
12:00 +35°C° 0 mm 8 mps 751 mmHg 21%
13:00 +35°C° 0 mm 8 mps 751 mmHg 24%
14:00 +34°C° 0 mm 7 mps 751 mmHg 26%
15:00 +34°C° 0 mm 7 mps 750 mmHg 29%
16:00 +32°C° 0 mm 7 mps 751 mmHg 36%
17:00 +29°C° 0 mm 8 mps 752 mmHg 43%
18:00 +27°C° 0 mm 8 mps 752 mmHg 49%
19:00 +24°C° 0 mm 8 mps 753 mmHg 57%
20:00 +23°C° 0 mm 8 mps 753 mmHg 64%
21:00 +21°C° 0 mm 8 mps 754 mmHg 71%
22:00 +21°C° 0 mm 8 mps 754 mmHg 71%
23:00 +20°C° 0 mm 7 mps 755 mmHg 70%

7 December, Monday

Time Temperature Precipitation Wind Pressure Humidity
00:00 +20°C° 0 mm 7 mps 755 mmHg 69%
01:00 +18°C° 0 mm 7 mps 755 mmHg 70%
02:00 +17°C° 0 mm 7 mps 755 mmHg 71%
03:00 +17°C° 0 mm 7 mps 756 mmHg 72%
04:00 +16°C° 0 mm 7 mps 756 mmHg 73%
05:00 +15°C° 0 mm 6 mps 756 mmHg 74%
06:00 +15°C° 0 mm 6 mps 757 mmHg 75%
07:00 +16°C° 0 mm 6 mps 757 mmHg 68%
08:00 +17°C° 0 mm 6 mps 758 mmHg 62%
09:00 +18°C° 0 mm 7 mps 758 mmHg 55%
10:00 +20°C° 0 mm 7 mps 758 mmHg 49%
11:00 +21°C° 0 mm 7 mps 758 mmHg 43%
12:00 +22°C° 0 mm 7 mps 757 mmHg 38%
13:00 +22°C° 0 mm 7 mps 757 mmHg 37%
14:00 +22°C° 0 mm 7 mps 757 mmHg 35%
15:00 +23°C° 0 mm 7 mps 757 mmHg 34%
16:00 +21°C° 0 mm 6 mps 757 mmHg 37%
17:00 +20°C° 0 mm 5 mps 758 mmHg 39%
18:00 +19°C° 0 mm 5 mps 758 mmHg 42%
19:00 +18°C° 0 mm 4 mps 758 mmHg 44%
20:00 +17°C° 0 mm 4 mps 759 mmHg 45%
21:00 +17°C° 0 mm 4 mps 759 mmHg 46%
22:00 +15°C° 0 mm 4 mps 759 mmHg 46%
23:00 +15°C° 0 mm 4 mps 759 mmHg 46%

8 December, Tuesday

Time Temperature Precipitation Wind Pressure Humidity
00:00 +14°C° 0 mm 5 mps 759 mmHg 46%
01:00 +14°C° 0 mm 5 mps 759 mmHg 47%
02:00 +14°C° 0 mm 5 mps 759 mmHg 48%
03:00 +13°C° 0 mm 5 mps 759 mmHg 48%
04:00 +13°C° 0 mm 5 mps 759 mmHg 49%
05:00 +13°C° 0 mm 5 mps 759 mmHg 50%
06:00 +12°C° 0 mm 5 mps 759 mmHg 50%
07:00 +14°C° 0 mm 5 mps 760 mmHg 46%
08:00 +15°C° 0 mm 6 mps 760 mmHg 42%
09:00 +17°C° 0 mm 6 mps 761 mmHg 37%
10:00 +19°C° 0 mm 6 mps 760 mmHg 33%
11:00 +20°C° 0 mm 6 mps 760 mmHg 29%
12:00 +22°C° 0 mm 6 mps 759 mmHg 25%
13:00 +22°C° 0 mm 6 mps 759 mmHg 25%
14:00 +22°C° 0 mm 6 mps 759 mmHg 24%
15:00 +22°C° 0 mm 6 mps 758 mmHg 23%
16:00 +21°C° 0 mm 5 mps 759 mmHg 28%
17:00 +19°C° 0 mm 5 mps 759 mmHg 32%
18:00 +17°C° 0 mm 4 mps 759 mmHg 37%
19:00 +17°C° 0 mm 4 mps 759 mmHg 40%
20:00 +15°C° 0 mm 4 mps 760 mmHg 42%
21:00 +15°C° 0 mm 4 mps 760 mmHg 45%
22:00 +14°C° 0 mm 4 mps 760 mmHg 45%
23:00 +14°C° 0 mm 4 mps 760 mmHg 46%
Show more